GW5684 Weather Reports


time (UTC)temp
C
wind
direction
speed
KPH
gust
KPH
rain 1hr
cm
rain 24hr
cm
rain mn
cm
humidity
%
barometer
mb
20260507130502 12 53 1.6 16.1 0.00 1.09 0.56 59 1012.5
20260507130004 12 22 6.4 16.1 0.00 1.09 0.56 60 1012.4
20260507125504 12 30 4.8 14.5 0.00 1.09 0.56 60 1012.5
20260507125003 12 263 3.2 14.5 0.00 1.09 0.56 62 1012.5
20260507124507 12 38 3.2 14.5 0.00 1.09 0.56 63 1012.4
20260507124003 12 246 4.8 9.7 0.00 1.09 0.56 72 1012.3
20260507123503 12 43 1.6 9.7 0.00 1.09 0.56 79 1012.2
20260507123013 12 11 1.6 6.4 0.00 1.09 0.56 79 1012.4
20260507122504 12 30 3.2 6.4 0.00 1.09 0.56 79 1012.4
20260507122007 12 36 1.6 6.4 0.00 1.09 0.56 80 1012.5
20260507121507 12 44 1.6 6.4 0.00 1.12 0.56 80 1012.4
20260507121003 12 340 0.0 6.4 0.00 1.12 0.56 80 1012.3
20260507120507 12 23 1.6 8.0 0.00 1.14 0.56 80 1012.3
20260507120006 12 28 3.2 8.0 0.00 1.14 0.56 80 1012.5
20260507115504 12 83 1.6 9.7 0.00 1.14 0.56 81 1012.3
20260507115006 12 28 4.8 9.7 0.00 1.14 0.56 81 1012.2
20260507114513 12 44 0.0 4.8 0.00 1.14 0.56 82 1012.3
20260507114007 12 30 1.6 6.4 0.00 1.14 0.56 82 1012.0
20260507113504 12 49 1.6 6.4 0.00 1.14 0.56 83 1012.0
20260507113008 12 31 0.0 4.8 0.00 1.14 0.56 84 1011.9
20260507112508 12 31 0.0 8.0 0.00 1.14 0.56 84 1011.9
20260507112008 12 340 1.6 8.0 0.00 1.14 0.56 84 1011.9
20260507111519 12 352 0.0 3.2 0.00 1.14 0.56 86 1011.9
20260507111003 12 352 0.0 3.2 0.00 1.14 0.56 86 1011.8
20260507110506 12 352 0.0 4.8 0.00 1.14 0.56 85 1011.7
20260507110013 12 352 1.6 4.8 0.00 1.14 0.56 85 1011.6
20260507105507 12 46 0.0 3.2 0.00 1.14 0.56 85 1011.7
20260507105007 12 46 0.0 3.2 0.00 1.14 0.56 86 1011.6
20260507104512 12 46 0.0 3.2 0.00 1.14 0.56 86 1011.5
20260507104006 12 46 0.0 4.8 0.00 1.14 0.56 86 1011.5
20260507103507 12 11 3.2 4.8 0.00 1.14 0.56 86 1011.5
20260507103011 12 15 0.0 3.2 0.00 1.14 0.56 86 1011.6
20260507102503 12 15 0.0 3.2 0.00 1.14 0.56 87 1011.5
20260507102007 12 15 0.0 3.2 0.00 1.14 0.56 87 1011.5
20260507101519 12 15 0.0 3.2 0.00 1.14 0.56 87 1011.5
20260507101004 12 51 0.0 3.2 0.00 1.14 0.56 88 1011.4
20260507100504 12 51 0.0 3.2 0.00 1.14 0.56 87 1011.3
20260507100011 12 51 0.0 3.2 0.00 1.14 0.56 87 1011.3
20260507095507 12 51 1.6 3.2 0.00 1.14 0.56 88 1011.2
20260507095005 12 18 0.0 3.2 0.00 1.14 0.56 88 1011.3
20260507094514 12 18 0.0 3.2 0.00 1.14 0.56 87 1011.3
20260507094005 12 18 0.0 3.2 0.00 1.14 0.56 87 1011.3
20260507093506 12 18 0.0 3.2 0.00 1.14 0.56 87 1011.4
20260507093012 12 18 0.0 3.2 0.00 1.14 0.56 87 1011.4
20260507092503 12 18 0.0 3.2 0.00 1.14 0.56 87 1011.2
20260507092006 12 18 0.0 3.2 0.00 1.14 0.56 86 1011.0
20260507091516 12 72 0.0 3.2 0.00 1.14 0.56 85 1011.1
20260507091009 12 16 0.0 4.8 0.00 1.14 0.56 85 1011.2
20260507090504 12 36 3.2 6.4 0.00 1.14 0.56 86 1011.2
20260507090017 12 331 1.6 6.4 0.00 1.14 0.56 87 1011.1
20260507085504 12 29 0.0 4.8 0.00 1.14 0.56 88 1011.1
20260507085005 12 62 0.0 3.2 0.00 1.14 0.56 89 1011.1
20260507084530 12 122 0.0 3.2 0.00 1.14 0.56 89 1011.0
20260507084009 12 32 0.0 3.2 0.00 1.14 0.56 89 1010.8
20260507083505 12 32 0.0 3.2 0.00 1.14 0.56 89 1011.1
20260507083014 12 32 0.0 3.2 0.00 1.14 0.56 89 1011.1
20260507082507 12 32 0.0 3.2 0.00 1.14 0.56 89 1011.1
20260507082007 12 32 0.0 3.2 0.00 1.14 0.56 88 1011.1
20260507081520 12 5 0.0 3.2 0.00 1.14 0.56 88 1011.0
20260507081007 12 5 1.6 4.8 0.00 1.14 0.56 88 1010.9
20260507080510 12 340 1.6 4.8 0.00 1.14 0.56 88 1010.7
20260507080014 13 336 0.0 3.2 0.00 1.14 0.56 88 1010.6
20260507075507 13 21 0.0 4.8 0.00 1.14 0.56 88 1010.6
20260507075010 13 330 1.6 4.8 0.00 1.14 0.56 88 1010.6
20260507074527 13 218 0.0 3.2 0.00 1.14 0.56 88 1010.6
20260507074006 13 218 0.0 4.8 0.00 1.14 0.56 88 1010.6
20260507073507 13 47 1.6 4.8 0.00 1.14 0.56 88 1010.4
20260507073016 13 69 0.0 4.8 0.00 1.14 0.56 89 1010.2
20260507072509 13 184 0.0 3.2 0.00 1.14 0.56 89 1010.1
20260507072009 13 19 0.0 6.4 0.00 1.14 0.56 89 1010.2
20260507071521 13 38 1.6 6.4 0.00 1.14 0.56 89 1010.2
20260507071006 13 30 1.6 6.4 0.00 1.14 0.56 89 1010.2
20260507070507 13 80 1.6 9.7 0.00 1.14 0.56 89 1010.1
20260507070018 13 30 0.0 9.7 0.00 1.14 0.56 89 1010.3
20260507065508 13 69 1.6 9.7 0.00 1.14 0.56 90 1010.3
20260507065007 13 9 0.0 4.8 0.03 1.14 0.56 90 1010.1
20260507064518 13 18 1.6 4.8 0.03 1.14 0.56 90 1010.2
20260507064010 13 319 0.0 3.2 0.03 1.14 0.56 89 1010.3
20260507063508 13 94 0.0 4.8 0.03 1.14 0.56 90 1010.0
20260507063022 13 84 0.0 8.0 0.08 1.14 0.56 89 1010.3
20260507062509 13 38 0.0 12.9 0.10 1.14 0.56 89 1010.6
20260507062010 13 339 0.0 12.9 0.15 1.14 0.56 89 1010.3
20260507061520 13 37 4.8 11.3 0.18 1.14 0.56 89 1009.9
20260507061007 13 46 1.6 6.4 0.20 1.14 0.56 89 1009.9
20260507060507 13 30 0.0 8.0 0.20 1.14 0.56 89 1010.1
20260507060020 13 28 4.8 9.7 0.20 1.14 0.56 89 1009.8
20260507055507 13 17 3.2 12.9 0.23 1.14 0.56 89 1010.0
20260507055011 13 34 4.8 11.3 0.20 1.12 0.53 89 1009.8
20260507054516 13 26 1.6 3.2 0.23 1.12 0.53 89 1009.9
20260507054013 13 46 0.0 4.8 0.23 1.12 0.53 89 1010.3
20260507053508 13 28 0.0 4.8 0.28 1.12 0.53 89 1010.5
20260507053022 13 308 0.0 4.8 0.33 1.07 0.48 89 1010.2
20260507052512 13 352 1.6 4.8 0.36 1.04 0.46 89 1010.2
20260507052010 14 305 0.0 3.2 0.36 0.99 0.41 89 1009.9
20260507051533 14 309 0.0 4.8 0.38 0.97 0.38 88 1009.9
20260507051002 14 9 1.6 4.8 0.36 0.94 0.36 89 1010.3
20260507050503 14 256 0.0 8.0 0.36 0.94 0.36 89 1010.6
20260507050008 14 230 1.6 8.0 0.36 0.94 0.36 89 1010.2
20260507045505 14 306 0.0 3.2 0.33 0.91 0.33 89 1010.1
20260507045007 14 306 0.0 3.2 0.33 0.91 0.33 89 1009.9
20260507044514 14 19 1.6 3.2 0.30 0.89 0.30 88 1010.4
20260507044008 14 142 0.0 3.2 0.30 0.89 0.30 87 1010.2
20260507043507 15 142 0.0 3.2 0.25 0.84 0.25 85 1010.0
20260507043020 15 69 0.0 4.8 0.15 0.74 0.15 82 1010.7
20260507042509 15 5 1.6 4.8 0.10 0.69 0.10 79 1010.5
20260507042008 16 352 3.2 4.8 0.05 0.64 0.05 77 1010.1
20260507041524 16 315 1.6 4.8 0.00 0.58 0.00 76 1010.3
20260507041003 16 19 1.6 9.7 0.00 0.58 0.00 75 1010.2
20260507040504 16 37 1.6 12.9 0.00 0.58 0.00 75 1010.3
20260507040009 16 346 4.8 12.9 0.00 0.58 0.00 74 1010.1
20260507035504 17 272 3.2 14.5 0.00 0.58 0.58 73 1010.1
20260507035006 17 19 3.2 14.5 0.00 0.58 0.58 72 1010.0
20260507034512 17 24 3.2 14.5 0.00 0.58 0.58 73 1009.9
20260507034007 17 261 1.6 14.5 0.00 0.58 0.58 72 1010.1
20260507033512 17 51 6.4 17.7 0.00 0.58 0.58 72 1010.1
20260507033018 17 44 3.2 17.7 0.00 0.58 0.58 73 1010.1
20260507032510 17 351 6.4 12.9 0.00 0.58 0.58 74 1009.8
20260507032009 17 313 3.2 12.9 0.00 0.58 0.58 74 1009.7
20260507031523 18 323 3.2 12.9 0.00 0.58 0.58 75 1009.6
20260507031010 18 5 4.8 9.7 0.00 0.58 0.58 76 1009.4
20260507030511 18 48 3.2 17.7 0.00 0.58 0.58 77 1009.2
20260507030024 18 43 4.8 17.7 0.00 0.58 0.58 77 1009.4
20260507025502 18 350 6.4 17.7 0.00 0.58 0.58 78 1009.5
20260507025003 18 344 6.4 17.7 0.00 0.58 0.58 79 1009.4
20260507024509 18 70 0.0 9.7 0.00 0.58 0.58 79 1009.5
20260507024009 18 338 3.2 9.7 0.00 0.58 0.58 80 1009.4
20260507023508 18 352 0.0 14.5 0.00 0.58 0.58 82 1009.4
20260507023016 19 36 3.2 14.5 0.00 0.58 0.58 82 1009.1
20260507022509 19 49 4.8 14.5 0.00 0.58 0.58 83 1008.9
20260507022007 19 302 4.8 6.4 0.00 0.58 0.58 84 1008.8
20260507021519 19 40 1.6 4.8 0.00 0.58 0.58 86 1008.7
20260507021009 18 196 0.0 3.2 0.00 0.58 0.58 87 1008.7
20260507020510 18 196 0.0 0.0 0.00 0.58 0.58 87 1008.6
20260507020021 18 196 0.0 0.0 0.00 0.58 0.58 87 1008.9
20260507015513 18 196 0.0 0.0 0.00 0.58 0.58 87 1008.8
20260507015012 18 196 0.0 0.0 0.00 0.58 0.58 87 1008.9
20260507014510 18 196 0.0 3.2 0.00 0.58 0.58 87 1008.8
20260507014004 18 196 0.0 3.2 0.00 0.58 0.58 86 1008.8
20260507013508 18 196 0.0 3.2 0.00 0.58 0.58 86 1008.7
20260507013013 18 196 0.0 1.6 0.00 0.58 0.58 86 1008.8
20260507012504 18 196 0.0 1.6 0.00 0.58 0.58 86 1008.9
20260507012010 18 196 1.6 3.2 0.00 0.58 0.58 86 1009.0
20260507011531 18 196 0.0 3.2 0.00 0.58 0.58 86 1009.1
20260507011008 18 196 0.0 3.2 0.00 0.58 0.58 86 1009.2
20260507010509 18 196 0.0 3.2 0.00 0.58 0.58 86 1009.1
20260507010022 18 196 0.0 3.2 0.00 0.58 0.58 86 1009.2
20260507005509 18 196 0.0 3.2 0.00 0.58 0.58 86 1009.1
20260507005011 18 196 0.0 3.2 0.00 0.58 0.58 86 1008.9
20260507004523 18 196 0.0 3.2 0.00 0.58 0.58 86 1008.8
20260507004011 18 196 0.0 3.2 0.00 0.58 0.58 86 1008.8
20260507003514 18 196 0.0 0.0 0.00 0.58 0.58 86 1009.0
20260507003016 18 196 0.0 0.0 0.00 0.58 0.58 86 1008.8
20260507002506 18 196 0.0 0.0 0.00 0.58 0.58 85 1008.8
20260507002007 18 196 0.0 0.0 0.00 0.58 0.58 85 1008.9
20260507001517 19 196 0.0 3.2 0.00 0.58 0.58 83 1008.5
20260507001008 19 196 0.0 3.2 0.00 0.58 0.58 83 1008.7
20260507000509 19 196 0.0 3.2 0.00 0.58 0.58 82 1008.5
20260507000023 20 196 0.0 3.2 0.00 0.58 0.58 82 1008.5
20260506235509 20 196 0.0 1.6 0.00 0.58 0.58 81 1008.3
20260506235007 20 196 0.0 1.6 0.00 0.58 0.58 81 1008.3
20260506234524 20 196 0.0 3.2 0.00 0.58 0.58 81 1008.3
20260506234011 20 196 0.0 3.2 0.00 0.58 0.58 81 1008.1
20260506233511 20 196 0.0 3.2 0.00 0.58 0.58 80 1008.0
20260506233028 20 196 0.0 3.2 0.00 0.58 0.58 80 1007.9
20260506232514 20 196 0.0 3.2 0.00 0.58 0.58 80 1007.9
20260506232010 20 196 0.0 3.2 0.00 0.58 0.58 80 1007.9
20260506231515 20 196 0.0 3.2 0.00 0.58 0.58 80 1007.9
20260506231009 20 171 0.0 3.2 0.00 0.58 0.58 80 1007.8
20260506230504 20 159 0.0 3.2 0.00 0.58 0.58 79 1007.9
20260506230019 20 159 0.0 3.2 0.00 0.58 0.58 79 1007.9
20260506225508 20 192 0.0 3.2 0.00 0.58 0.58 78 1007.8
20260506225007 20 184 0.0 3.2 0.00 0.58 0.58 78 1007.8
20260506224523 20 194 0.0 6.4 0.00 0.58 0.58 78 1007.8
20260506224007 20 181 1.6 6.4 0.00 0.58 0.58 78 1007.7
20260506223503 20 172 0.0 3.2 0.00 0.58 0.58 78 1007.8
20260506223008 20 208 0.0 4.8 0.00 0.58 0.58 78 1007.8
20260506222506 20 208 0.0 4.8 0.00 0.58 0.58 78 1007.7
20260506222006 20 149 1.6 4.8 0.00 0.58 0.58 78 1007.8
20260506221502 20 229 0.0 3.2 0.00 0.58 0.58 78 1007.8
20260506221003 20 142 0.0 3.2 0.00 0.58 0.58 78 1007.8
20260506220502 20 180 1.6 4.8 0.00 0.58 0.58 78 1007.9
20260506220004 20 173 0.0 8.0 0.00 0.58 0.58 78 1008.0
20260506215503 20 204 0.0 8.0 0.00 0.58 0.58 78 1007.9
20260506215003 20 183 0.0 4.8 0.00 0.58 0.58 79 1007.8
20260506214503 20 176 0.0 6.4 0.00 0.58 0.58 79 1007.8
20260506214002 20 184 1.6 6.4 0.00 0.58 0.58 78 1007.8
20260506213503 20 221 1.6 8.0 0.00 0.58 0.58 78 1008.1
20260506213006 20 186 1.6 8.0 0.00 0.58 0.58 78 1008.0
20260506212505 20 229 0.0 6.4 0.00 0.58 0.58 77 1008.0
20260506212006 20 182 1.6 6.4 0.00 0.58 0.58 77 1008.0
20260506211511 20 202 1.6 6.4 0.00 0.58 0.58 77 1008.0
20260506211006 20 230 1.6 11.3 0.00 0.58 0.58 77 1007.9
20260506210509 20 188 1.6 11.3 0.00 0.58 0.58 78 1007.7
20260506210002 20 341 1.6 6.4 0.00 0.58 0.58 78 1007.6
20260506205502 20 194 1.6 6.4 0.00 0.58 0.58 78 1007.7
20260506205002 20 255 1.6 6.4 0.00 0.58 0.58 78 1007.6
20260506204505 20 281 1.6 6.4 0.00 0.58 0.58 77 1007.7
20260506204003 20 196 1.6 12.9 0.00 0.58 0.58 78 1007.6
20260506203503 20 234 1.6 12.9 0.00 0.58 0.58 78 1007.6
20260506203010 20 206 3.2 9.7 0.00 0.58 0.58 77 1007.8
20260506202502 20 242 3.2 6.4 0.00 0.58 0.58 79 1007.7
20260506202002 20 238 3.2 17.7 0.00 0.58 0.58 78 1007.7
20260506201508 20 227 3.2 17.7 0.00 0.58 0.58 78 1007.6
20260506201005 20 254 3.2 9.7 0.00 0.58 0.58 78 1007.8
20260506200506 20 240 4.8 14.5 0.00 0.58 0.58 79 1007.8
20260506200012 20 234 3.2 14.5 0.00 0.58 0.58 78 1007.8
20260506195509 20 226 3.2 14.5 0.00 0.58 0.58 79 1007.7
20260506195003 20 234 4.8 14.5 0.00 0.58 0.58 78 1007.7
20260506194503 20 234 3.2 12.9 0.00 0.58 0.58 79 1007.7
20260506194004 20 217 1.6 11.3 0.00 0.58 0.58 79 1007.6
20260506193503 20 237 3.2 11.3 0.00 0.58 0.58 79 1007.7
20260506193004 19 253 4.8 11.3 0.00 0.58 0.58 79 1007.7
20260506192503 19 223 4.8 11.3 0.00 0.58 0.58 79 1007.6
20260506192004 19 224 4.8 11.3 0.00 0.58 0.58 79 1008.1
20260506191508 19 214 4.8 11.3 0.00 0.58 0.58 80 1007.9
20260506191004 19 208 3.2 9.7 0.00 0.58 0.58 80 1008.3
20260506190506 18 209 1.6 11.3 0.00 0.58 0.58 81 1008.3
20260506190011 18 232 4.8 12.9 0.00 0.58 0.58 80 1008.3
20260506185506 18 254 3.2 12.9 0.00 0.58 0.58 80 1008.3
20260506185009 19 225 1.6 8.0 0.00 0.58 0.58 80 1008.5
20260506184523 19 226 4.8 8.0 0.00 0.58 0.58 80 1008.7
20260506184008 19 324 1.6 8.0 0.00 0.58 0.58 80 1008.5
20260506183506 18 233 4.8 9.7 0.00 0.58 0.58 80 1008.5
20260506183006 18 244 3.2 12.9 0.00 0.58 0.58 80 1008.4
20260506182503 19 162 3.2 12.9 0.00 0.58 0.58 79 1008.4
20260506182004 19 225 3.2 6.4 0.00 0.58 0.58 80 1008.6
20260506181506 18 150 3.2 12.9 0.00 0.58 0.58 80 1008.6
20260506181004 18 275 4.8 12.9 0.00 0.58 0.58 79 1008.7
20260506180508 18 242 3.2 16.1 0.00 0.58 0.58 79 1008.7
20260506180010 18 217 4.8 16.1 0.00 0.58 0.58 79 1008.7
20260506175504 18 225 4.8 8.0 0.00 0.58 0.58 80 1008.9
20260506175005 18 267 4.8 8.0 0.00 0.58 0.58 81 1008.7
20260506174512 18 260 3.2 8.0 0.00 0.58 0.58 81 1008.9
20260506174012 18 290 4.8 9.7 0.00 0.58 0.58 82 1008.9
20260506173510 18 221 3.2 9.7 0.00 0.58 0.58 84 1008.9
20260506173016 18 211 3.2 9.7 0.00 0.58 0.58 84 1008.8
20260506172508 18 202 3.2 9.7 0.00 0.58 0.58 84 1008.9
20260506172002 17 184 3.2 11.3 0.00 0.58 0.58 84 1009.0
20260506171503 18 232 3.2 11.3 0.00 0.58 0.58 85 1008.8
20260506171003 17 251 3.2 16.1 0.00 0.58 0.58 85 1009.0
20260506170502 17 212 4.8 16.1 0.00 0.58 0.58 85 1009.2
20260506170011 17 214 4.8 9.7 0.00 0.58 0.58 86 1009.2
20260506165502 17 248 4.8 11.3 0.00 0.58 0.58 86 1009.1
20260506165007 17 249 4.8 11.3 0.00 0.58 0.58 86 1009.1
20260506164511 17 233 3.2 11.3 0.00 0.58 0.58 87 1009.2
20260506164007 17 226 3.2 12.9 0.00 0.58 0.58 88 1009.3
20260506163507 17 202 3.2 12.9 0.00 0.58 0.58 88 1009.3
20260506163017 17 187 1.6 9.7 0.00 0.58 0.58 89 1009.3
20260506162512 17 204 3.2 11.3 0.00 0.58 0.58 89 1009.3
20260506162012 16 219 4.8 11.3 0.00 0.58 0.58 89 1009.4
20260506161533 16 235 3.2 8.0 0.00 0.58 0.58 89 1009.4
20260506161011 16 222 3.2 9.7 0.03 0.58 0.58 90 1009.4
20260506160505 16 239 3.2 11.3 0.03 0.58 0.58 90 1009.4
20260506160007 16 223 3.2 11.3 0.05 0.58 0.58 90 1009.4
20260506155503 17 249 1.6 4.8 0.08 0.58 0.58 91 1009.5
20260506155003 16 204 1.6 9.7 0.08 0.58 0.58 91 1009.6
20260506154508 16 213 3.2 9.7 0.10 0.58 0.58 91 1009.6
20260506154007 16 248 1.6 9.7 0.15 0.58 0.58 91 1009.5
20260506153508 16 193 3.2 9.7 0.18 0.58 0.58 91 1009.7
20260506153015 16 179 1.6 8.0 0.18 0.58 0.58 91 1009.7
20260506152507 16 225 1.6 8.0 0.18 0.58 0.58 91 1009.7
20260506152009 16 224 1.6 11.3 0.18 0.58 0.58 91 1009.5
20260506151520 16 242 1.6 11.3 0.20 0.58 0.58 91 1009.6
20260506151012 16 244 0.0 8.0 0.20 0.56 0.56 91 1009.9
20260506150508 16 223 1.6 8.0 0.23 0.56 0.56 91 1010.1
20260506150024 16 213 1.6 8.0 0.25 0.53 0.53 91 1010.1
20260506145512 16 217 1.6 9.7 0.25 0.51 0.51 90 1010.2
20260506145003 16 199 3.2 9.7 0.28 0.51 0.51 90 1010.4
20260506144523 16 229 1.6 8.0 0.30 0.48 0.48 90 1010.4
20260506144006 16 173 0.0 12.9 0.28 0.43 0.43 91 1010.3
20260506143506 16 193 0.0 12.9 0.25 0.41 0.41 91 1010.4
20260506143010 16 217 1.6 6.4 0.28 0.41 0.41 91 1010.4
20260506142509 16 229 0.0 4.8 0.30 0.41 0.41 91 1010.3
20260506142008 16 181 0.0 4.8 0.33 0.41 0.41 91 1010.3
20260506141516 15 133 0.0 4.8 0.30 0.38 0.38 91 1010.2
20260506141009 15 191 0.0 4.8 0.30 0.36 0.36 90 1010.1
20260506140508 15 198 1.6 3.2 0.28 0.33 0.33 90 1010.2
20260506140029 16 194 0.0 9.7 0.23 0.28 0.28 90 1010.3
20260506135507 16 157 0.0 9.7 0.20 0.25 0.25 89 1010.3
20260506135009 16 209 0.0 4.8 0.18 0.23 0.23 89 1010.3
20260506134530 16 179 1.6 4.8 0.13 0.18 0.18 89 1010.3
20260506134004 16 175 0.0 4.8 0.10 0.15 0.15 88 1010.5
20260506133509 16 205 0.0 4.8 0.10 0.15 0.15 88 1010.5
20260506133011 16 179 1.6 4.8 0.08 0.13 0.13 87 1010.6
20260506132508 16 218 1.6 3.2 0.05 0.10 0.10 87 1010.7
20260506132006 16 215 0.0 4.8 0.03 0.08 0.08 86 1010.8
20260506131519 16 194 1.6 8.0 0.05 0.08 0.08 86 1010.7
20260506131007 16 198 0.0 8.0 0.03 0.05 0.05 86 1010.7